User: anonymous   Login
Location: Bosmont
(49.7318°N, 3.8587°E)
Time: 06:42:58
(UTC+00:00)
Language:

COSMOS 2455 - Orbit

View from above orbital plane
View from above orbital plane
View from above satellite
View from above satellite

Ground track
Ground track

The orbit data is extracted from the following two-line orbital elements,

1 36095U 09063A   23156.49257524 -.00000029  00000-0  33602-4 0  9996
2 36095  67.1488  66.3637 0008810 258.4079 101.6016 13.96839784690606
Epoch (UTC): 05 June 2023 11:49:18
Eccentricity: 0.0008810
inclination: 67.1488°
perigee height: 898 km
apogee height: 911 km
right ascension of ascending node: 66.3637°
argument of perigee: 258.4079°
revolutions per day: 13.96839784
mean anomaly at epoch: 101.6016°
orbit number at epoch: 69060

The dashed part of the orbit path shows where the satellite is in the earth's shadow,  

DLR